Regional Weather Roundup
Issued by NWS Grand Forks, ND

Home | Current Version | Previous Version | Text Only | Print | Product List | Glossary Off
Versions: 1 2 3 4 5 6 7 8 9 10 11 12 13 14 15 16 17 18 19 20 21 22 23 24 25 26 27 28 29 30 31 32 33 34 35 36 37 38 39 40 41 42 43 44 45 46 47 48 49 50

000
ASUS43 KFGF 241210
RWRFGF
PRAIRIE TO PINES  WEATHER ROUNDUP
NATIONAL WEATHER SERVICE EASTERN NORTH DAKOTA/GRAND FORKS ND
700 AM CDT MON JUL 24 2017

 **SATELLITE DATA USED TO AUGMENT SKY COVER AT AUTOMATED STATIONS**
 *****  WEATHER ACROSS EASTERN NORTH DAKOTA  *****

CITY           SKY/WX    TMP DP  RH WIND       PRES   REMARKS
GRAND FORKS    FAIR      62  61  96 S6        29.97R
6HR MIN TEMP:  60; 6HR MAX TEMP:  63;

GRAND FRKS AFB FAIR      61  60  96 S7        29.97R
DEVILS LAKE    FAIR      65  60  84 S12       29.95R
6HR MIN TEMP:  64; 6HR MAX TEMP:  67;

FARGO          CLEAR     64  60  87 MISG        N/A
WAHPETON ARPT  FAIR      59  55  88 SE7       30.01F
$$

 ***** WEATHER ACROSS CENTRAL AND WESTERN NORTH DAKOTA  *****

CITY           SKY/WX    TMP DP  RH WIND       PRES   REMARKS
BISMARCK       FAIR      65  61  87 SE8       29.93S
6HR MIN TEMP:  65; 6HR MAX TEMP:  68;

MINOT          FAIR      70  57  63 S13G21    29.82F
6HR MIN TEMP:  65; 6HR MAX TEMP:  72;

JAMESTOWN      FAIR      62  58  86 S10       29.96F
6HR MIN TEMP:  60; 6HR MAX TEMP:  63;

MINOT AFB      FAIR      67  57  71 S10       29.80F
GARRISON         N/A     66  60  81 S12       29.87F
WILLISTON      FAIR      73  54  51 S8        29.76F
6HR MIN TEMP:  72; 6HR MAX TEMP:  77;

DICKINSON      FAIR      67  55  65 SE15G24   29.84F
6HR MIN TEMP:  66; 6HR MAX TEMP:  69;

HETTINGER      FAIR      68  55  63 NE13G21   29.85F
6HR MIN TEMP:  67; 6HR MAX TEMP:  70;

$$

 *****  OTHER AIRPORT OBSERVATIONS IN OUR AREA  *****

CITY           SKY/WX    TMP DP  RH WIND       PRES   REMARKS
WALHALLA       NOT AVBL
GRAFTON AIRPOR FAIR      61  61 100 S7        29.98R
VALLEY CITY AR FAIR      59  59 100 S10       30.00R
CANDO          NOT AVBL
CAVALIER APRT  FAIR      63  61  94 S5        29.94S
GWINNER        SUNNY     57  57 100 CALM      30.00S
SHEYENNE NWR     N/A     57  57 100 SW2       29.95S
ROLLA            N/A     59  59 100 S9        29.92S
 ***** THE ABOVE OBSERVATIONS ARE NON NWS ARE NOT QUALITY
       CONTROLLED AND MAY MIS-REPORT RAIN FOR SNOW...
$$

  *****  WEATHER ACROSS NORTHERN MINNESOTA  *****

CITY           SKY/WX    TMP DP  RH WIND       PRES   REMARKS
FLAG ISLAND    FAIR      66  61  82 S5        30.00R HAZE
WARROAD        FAIR      61  55  82 S3        30.01R
ROSEAU         FAIR      61  55  82 S8        29.99S
HALLOCK        FAIR      59  57  94 SE7       29.96S
THF RVR FALLS  FAIR      60  58  92 S5        30.02R
6HR MIN TEMP:  57; 6HR MAX TEMP:  61;

BAUDETTE       FAIR      59  58  96 S6        30.01R
6HR MIN TEMP:  55; 6HR MAX TEMP:  60;

WASKISH        FAIR      61  57  88 S3          N/A
CROOKSTON      FAIR      63  61  94 S8        29.99R
STEPHEN NDAWN    N/A     61  59  94 SE5         N/A
GREENBUSH NDAW   N/A     61  57  88 S3          N/A
$$
  *****  WEATHER ACROSS CENTRAL AND WEST MINNESOTA  *****

CITY           SKY/WX    TMP DP  RH WIND       PRES   REMARKS
FOSSTON        FAIR      61  57  88 S9        30.01S
BEMIDJI        FAIR      58  55  88 S5        30.04S
PARK RAPIDS    MOCLDY    57  56  96 SE3       30.05S FOG
6HR MIN TEMP:  55; 6HR MAX TEMP:  62;

ELBOW LAKE     FAIR      59  58  96 SE7       30.03F
6HR MIN TEMP:  58; 6HR MAX TEMP:  65;

WADENA         FAIR      54  54 100 CALM      30.05S
DETROIT LAKES  FAIR      61  59  94 S5        30.05S
MOORHEAD       FAIR      63  59  88 SE9       30.00F
FERGUS FALLS   FAIR      63  61  94 SE9       30.02F
MORRIS MN      FAIR      61  57  88 SE8       30.03F
STAPLES        FAIR      55  54  94 CALM      30.06R
$$
  *****  WEATHER ELSEWHERE ACROSS MINNESOTA  *****

CITY           SKY/WX    TMP DP  RH WIND       PRES   REMARKS
DULUTH         FOG       53  53 100 S3        30.09R VSB 1/8
6HR MIN TEMP:  49; 6HR MAX TEMP:  55;

INTRNTL FALLS  FAIR      58  55  90 VRB3      30.04R
6HR MIN TEMP:  49; 6HR MAX TEMP:  58;

ELY            FAIR      52  52 100 CALM      30.09R
CLOQUET        FOG       54  52  94 E5        30.09S VSB<1/4
WHEATON        FAIR      59  55  88 SE8       30.03F
BRAINERD       FAIR      54  54 100 SE3       30.07R
6HR MIN TEMP:  50; 6HR MAX TEMP:  57;

HIBBING        PTSUNNY   47  47 100 CALM      30.08S
6HR MIN TEMP:  42; 6HR MAX TEMP:  51;

ALEXANDRIA     FAIR      60  58  92 S3        30.08R
6HR MIN TEMP:  57; 6HR MAX TEMP:  64;

SAINT CLOUD    FOG       55  55 100 E5        30.06R VSB 1/4
6HR MIN TEMP:  51; 6HR MAX TEMP:  57;

MINNEAPOLIS    FAIR      62  56  80 E6        30.06R
6HR MIN TEMP:  60; 6HR MAX TEMP:  64;

$$

  *****  WEATHER ACROSS SOUTH DAKOTA  *****

CITY           SKY/WX    TMP DP  RH WIND       PRES   REMARKS
SIOUX FALLS    MOCLDY    59  58  96 CALM      30.04S
6HR MIN TEMP:  54; 6HR MAX TEMP:  62;

BROOKINGS      FAIR      59  57  93 SE6       30.04S
WATERTOWN      FAIR      59  57  93 SE5       30.01F
6HR MIN TEMP:  56; 6HR MAX TEMP:  62;

HURON          FAIR      61  59  93 SE8       29.99S
6HR MIN TEMP:  59; 6HR MAX TEMP:  66;

SISSETON         N/A     59  57  93 SE3       30.00S
ABERDEEN       FAIR      59  59 100 SE8       29.99S
6HR MIN TEMP:  57; 6HR MAX TEMP:  62;

MITCHELL       FAIR      62  60  93 SE6       30.01S
PIERRE         FAIR      67  58  72 SE14G22   29.92S
6HR MIN TEMP:  66; 6HR MAX TEMP:  69;

MOBRIDGE       FAIR      67  61  81 SE7       29.94S
RAPID CITY     FAIR      65  53  65 SW3       29.90F
6HR MIN TEMP:  65; 6HR MAX TEMP:  76; 6HR PCP: TRACE;

$$

  *****  SOME WEATHER IN NEARBY STATES *****

CITY           SKY/WX    TMP DP  RH WIND       PRES   REMARKS
GLASGOW MT     FAIR      72  46  39 SW6       29.71R
6HR MIN TEMP:  70; 6HR MAX TEMP:  76;

GREAT FALLS MT FAIR      51  43  74 NW9       30.04R
6HR MIN TEMP:  51; 6HR MAX TEMP:  74;

CHEYENNE WY    FAIR      57  51  80 SW7       30.13S
6HR MIN TEMP:  57; 6HR MAX TEMP:  70;

SCOTTSBLUFF NE FAIR      76  57  51 S9        29.97F
6HR MIN TEMP:  75; 6HR MAX TEMP:  80;

OMAHA NE       FAIR      62  58  86 N6        30.03R
6HR MIN TEMP:  60; 6HR MAX TEMP:  71;

DES MOINES IA  FAIR      65  60  84 NE7       30.02R
6HR MIN TEMP:  64; 6HR MAX TEMP:  70;

DAVENPORT IA   FAIR      65  63  93 NE6       30.01R
6HR MIN TEMP:  61; 6HR MAX TEMP:  65;

CHICAGO IL     FAIR      67  60  78 N10       29.98R
6HR MIN TEMP:  66; 6HR MAX TEMP:  70;

EAU CLAIRE WI  FAIR      57  56  96 NE3       30.07R
6HR MIN TEMP:  51; 6HR MAX TEMP:  61;

LA CROSSE WI   FAIR      64  57  78 E3        30.06R
6HR MIN TEMP:  61; 6HR MAX TEMP:  67;

$$

  *****  SOME NATIONAL WEATHER *****

CITY           SKY/WX    TMP DP  RH WIND       PRES   REMARKS
LA GUARDIA NY  LGT RAIN  70  68  93 E16       29.75F
6HR MIN TEMP:  69; 6HR MAX TEMP:  73; 6HR PCP:  0.45;

RALEIGH NC     PTSUNNY   73  71  93 SW6       29.91R
6HR MIN TEMP:  71; 6HR MAX TEMP:  73;

ATLANTA GA     PTSUNNY   75  73  93 W6        29.98S
6HR MIN TEMP:  75; 6HR MAX TEMP:  79; 6HR PCP: TRACE;

NEW ORLEANS LA MOCLDY    80  77  90 SW8       29.98R
6HR MIN TEMP:  77; 6HR MAX TEMP:  80; 6HR PCP: TRACE;

OKLAHOMA CITY  FAIR      69  67  93 W5        29.97R
6HR MIN TEMP:  68; 6HR MAX TEMP:  73;

ALBUQUERQUE NM FAIR      67  58  72 E6        30.20S
6HR MIN TEMP:  67; 6HR MAX TEMP:  73;

SALT LAKE CITY FAIR      75  49  39 SE7       30.00R
6HR MIN TEMP:  74; 6HR MAX TEMP:  83;

LOS ANGELES CA MOCLDY    69  64  84 CALM      29.88S
6HR MIN TEMP:  67; 6HR M


USA.gov is the U.S. government's official web portal to all federal, state and local government web resources and services.